Hourly Data Report for October 23, 2015

All times are specified in Local Standard Time (LST). Add 1 hour to adjust for Daylight Saving Time where and when it is observed.

WINNIPEG A CS
MANITOBA

49°55'00.000" N
97°14'58.000" W
238.70 m
502S001
71849
XWG

Download Data

Hourly Data (October 2015)
Hourly Data Report for October 23, 2015
Temp Definition
°C
Dew Point Temp Definition
°C
Rel Hum Definition
%
Wind Dir Definition
10's deg

Wind Spd Definition
km/h
Visibility Definition
km
Stn Press Definition
kPa
Hmdx Definition


Wind Chill Definition


Weather Definition


TIME
00:00 6.4 2.2 75 15 16   98.88     LegendNANA
01:00 7.6 2.3 69 16 16   98.79     LegendNANA
02:00 7.8 1.8 66 15 16   98.72     LegendNANA
03:00 7.1 1.8 69 15 16   98.66     LegendNANA
04:00 6.9 1.8 70 16 17   98.60     LegendNANA
05:00 8.1 1.6 64 17 21   98.57     LegendNANA
06:00 8.5 2.6 66 19 24   98.56     LegendNANA
07:00 8.5 4.9 78 20 20   98.53     LegendNANA
08:00 7.4 6.1 91 18 14   98.46     LegendNANA
09:00 7.3 6.5 95 14 12   98.38     LegendNANA
10:00 7.0 6.3 96 13 12   98.33     LegendNANA
11:00 6.8 6.1 95 12 12   98.28     LegendNANA
12:00 6.9 6.2 95 11 10   98.21     LegendNANA
13:00 7.1 6.6 97 7 7   98.10     LegendNANA
14:00 7.2 6.0 93 4 1   98.11     LegendNANA
15:00 7.6 6.6 93 32 14   98.06     LegendNANA
16:00 7.5 6.4 93 32 16   98.04     LegendNANA
17:00 7.6 6.8 95 32 11   98.06     LegendNANA
18:00 7.5 6.8 95 29 6   98.12     LegendNANA
19:00 6.8 6.0 94 30 14   98.17     LegendNANA
20:00 6.1 5.5 96 31 13   98.17     LegendNANA
21:00 5.5 5.1 97 30 12   98.19     LegendNANA
22:00 4.5 4.2 98 29 13   98.23     LegendNANA
23:00 3.7 3.3 97 29 15   98.25     LegendNANA

Notes on Data Quality.

Legend

  • E = Estimated
  • M = Missing
  • NA = Not Available
  • ‡ = Partner data that is not subject to review by the National Climate Archives
Date modified: